0 HST 1 20580U 90037B 26118.19411272 .00006988 00000-0 22478-3 0 9996 2 20580 28.4748 62.1018 0001678 314.3125 45.7333 15.30182777780909 0 ISS (ZARYA) 1 25544U 98067A 26118.19998100 .00008365 00000-0 15976-3 0 9998 2 25544 51.6320 187.5201 0007064 359.4554 0.6426 15.49001185564002 0 CXO 1 25867U 99040B 26119.13194012 .00000562 00000-0 00000-0 0 9993 2 25867 55.4178 118.0274 7914890 310.5929 0.1646 0.37810555 17133